LUCH-5X (OLYMP-K 2)

Last updated on Fri Dec 19 2025 00:02:53 GMT+0000 (Coordinated Universal Time)

1 55841U 23031A 25352.81619226 .00000058 00000+0 00000+0 0 9995 2 55841 0.0446 89.8427 0001089 54.3457 299.2950 1.00271596 10124
UTC large
Height (km)
Speed (km/s)
/
Latitude / Longitude
Inclination (degrees)
Orbital Period (minutes)
Azimuth
Elevation
Range (km)
Doppler Factor

Next 0 passes for location: London (51.5072 / 0.1276)

Sorry there are no passes over London.